DELTA 1 DEB, 7040

Orbit data source: Space-Track

DELTA 1 DEB, 7040 is space debris in SSO originally from a launch on Tue, 06 Nov 1973 UTC launched from the Air Force Western Test Range (AFWTR). Debris objects in space refer to the collection of defunct objects orbiting the Earth. Examples of debris include non-operational satellites, rocket bodies, and fragments generated from explosions, collisions, or faulty payload assembly.

Loading next visibility...
Identifier
7040, 1973-086AG
Orbit
SSO
Country
Flag of USUS
Related business
Manufacturer
Unknown
Mission
Spacecraft
Bus & Motor
Unknown
Mass
Unknown
Launch date (UTC)
1973-11-06 (52 years ago)
Launch vehicle
Unknown
Launch site
Air Force Western Test Range (AFWTR)
Object type
Payload
Rocket body
Debris
Shape & HBR
Unknown
Radar Cross Section
Small (<0.1 m²)

Expand to show TLE details & history
Last TLE update: 11 hours ago

TLE from 11 hours ago
0 DELTA 1 DEB
1 07040U 73086AG  25259.43741659  .00000115  00000-0  66785-3 0  9999
2 07040 102.5577  74.2078 0193591 304.7859  81.8878 12.82375234422142
Epoch: 2025-09-16T10:29Z
TLE epoch observation values (Epoch: 2025-09-16T10:29:52.793Z)
Latitude
28.16698°
Longitude
-85.70566°
Altitude
1,316.889 km
Speed
7.21 km/s
True Right ascension
04h 29m 34s
True Declination
28° 02' 04"
Sunlit
Object was in daylight at epoch
Visualization orbit readout
Latitude
Unknown
Longitude
Unknown
Altitude
Unknown
Speed
Unknown
Apparent Right ascension
Unknown
Apparent Declination
Unknown
Sunlit
N/A
Visualization observer readout
Local Sidereal Time
14:30:58
Azimuth
Unknown
Elevation
Unknown
Doppler factor
Unknown
Orbital elements
Apogee altitude
1,478.7 km
Perigee altitude
1,180.275 km
Semi-major axis
7,707.625 km
Eccentricity
0.01936
Inclination
102.5577°
RAAN
74.2078°
Arg. of periapsis
304.7859°
True anomaly
84.09097°
Mean anomaly
81.8878°
Eccentric anomaly
82.9887°
Mean motion
3.20747 °/min
Orbital period
112.24 mins
BSTAR
0.00066785
Loading maneuver chart data...
Computing Atmospheric mass density...
Loading historical data...
Loading historical data...
Loading historical data...
Loading historical data...
Loading historical data...
Loading historical data...
Loading historical data...

Documentation

Showing up to 5 results
|